Regional Weather Roundup
Issued by NWS

Home | Current Version | Previous Version | Text Only | Print | Product List | Glossary Off
Versions: 1 2 3 4 5 6 7 8 9 10 11 12 13 14 15 16 17 18 19 20 21 22 23 24 25 26 27 28 29 30 31 32 33 34 35 36 37 38 39 40 41 42 43 44 45 46 47 48 49 50

103
ASUS43 KFSD 232010
RWRSD

WEATHER ROUNDUP FOR SOUTH DAKOTA
NATIONAL WEATHER SERVICE SIOUX FALLS SD
300 PM CDT WED MAY 23 2018

NOTE: "FAIR" INDICATES FEW OR NO CLOUDS BELOW 12,000 FEET WITH NO
SIGNIFICANT WEATHER AND/OR OBSTRUCTIONS TO VISIBILITY.


SDZ001>005-009-010-012>017-232100-
NORTHWEST AND NORTH CENTRAL SOUTH DAKOTA

CITY           SKY/WX    TMP DP  RH WIND       PRES   REMARKS
BUFFALO          N/A     77  54  44 S7G18     29.81F
FAITH            N/A     71  63  75 S7        29.89S
MOBRIDGE       PTSUNNY   81  67  62 S12       29.85F
$$

SDZ012>016-024>037-041>051-057-063-072>074-232100-
SOUTHWEST AND SOUTH CENTRAL SOUTH DAKOTA

CITY           SKY/WX    TMP DP  RH WIND       PRES   REMARKS
RAPID CTY ARPT SUNNY     75  61  61 SE14      29.90S
PIERRE         PTSUNNY   82  67  60 SW12      29.86S
CUSTER         SUNNY     72  41  32 SW7       30.01F
ELLSWORTH AFB  PTSUNNY   74  64  70 SE10      29.90S
PHILIP         CLOUDY    74  66  76 S10       29.89S
PINE RIDGE     PTSUNNY   74  58  57 VRB3      29.92F
SPEARFISH      FAIR      73  59  60 NE9       29.92F
WINNER         FAIR      86  62  44 S13       29.89F
$$

SDZ004>011-016>023-039-040-232100-
NORTHEAST SOUTH DAKOTA

CITY           SKY/WX    TMP DP  RH WIND       PRES   REMARKS
ABERDEEN       MOSUNNY   83  68  60 SE20G30   29.91F
WATERTOWN      PTSUNNY   76  65  68 SE20G30   29.97F
BROOKINGS      CLOUDY    80  67  64 SE18G25   29.98F
SISSETON         N/A     76  65  68 S25G37    29.97F
$$

SDZ017-020-022-023-036>040-048>070-232100-
SOUTHEAST SOUTH DAKOTA

CITY           SKY/WX    TMP DP  RH WIND       PRES   REMARKS
SIOUX FALLS    PTSUNNY   85  67  54 SE21G29   29.97F
HURON          MOSUNNY   84  67  56 S20G31    29.90F
CHAMBERLAIN    MOSUNNY   86  70  59 SE18G25   29.88F
MITCHELL       PTSUNNY   79  61  53 S25G36    29.92R
YANKTON        CLOUDY    87  56  34 S15G30    29.93F
$$

ABBREVIATIONS USED IN REMARKS
   TC - TEMPERATURE IN CELSIUS
  WCI - WIND CHILL INDEX
   HX - HEAT INDEX
  VSB - VISIBILITY





USA.gov is the U.S. government's official web portal to all federal, state and local government web resources and services.